EW2295 Weather Reports


time (UTC)temp
F
wind
direction
speed
knots
gust
knots
rain 1hr
in
rain 24hr
in
rain mn
in
humidity
%
barometer
mb
20260905190546 61 0 0.0 0.0 0.00 0.00 0.00 71 1026.0
20260905190103 61 0 0.0 0.0 0.00 0.00 0.00 70 1026.0
20260905185542 61 0 0.0 3.5 0.00 0.00 0.00 70 1025.8
20260905185042 62 0 0.0 3.5 0.00 0.00 0.00 69 1025.8
20260905184612 62 0 0.0 1.7 0.00 0.00 0.00 69 1025.7
20260905184042 62 0 0.0 1.7 0.00 0.00 0.00 69 1025.7
20260905183542 62 0 0.0 0.9 0.00 0.00 0.00 69 1025.7
20260905183114 62 0 0.0 0.9 0.00 0.00 0.00 68 1025.6
20260905182549 62 0 0.0 6.1 0.00 0.00 0.00 67 1025.4
20260905182049 63 0 0.0 6.1 0.00 0.00 0.00 67 1025.2
20260905181609 63 0 0.0 5.2 0.00 0.00 0.00 66 1025.3
20260905181042 63 0 0.0 4.3 0.00 0.00 0.00 65 1025.2
20260905180545 64 0 0.0 7.8 0.00 0.00 0.00 64 1025.2
20260905180106 64 0 0.0 8.7 0.00 0.00 0.00 63 1025.2
20260905175542 64 0 0.0 8.7 0.00 0.00 0.00 63 1025.1
20260905175042 64 0 0.9 11.3 0.00 0.00 0.00 62 1025.0
20260905174558 64 217 0.9 11.3 0.00 0.00 0.00 62 1025.0
20260905174045 65 0 0.0 13.0 0.00 0.00 0.00 61 1024.9
20260905173546 65 0 0.0 13.0 0.00 0.00 0.00 61 1024.8
20260905173115 65 279 2.6 12.2 0.00 0.00 0.00 60 1024.8
20260905172542 65 264 0.9 12.2 0.00 0.00 0.00 61 1024.7
20260905172046 65 0 1.7 12.2 0.00 0.00 0.00 61 1024.6
20260905171605 65 0 1.7 12.2 0.00 0.00 0.00 61 1024.6
20260905171045 65 0 1.7 12.2 0.00 0.00 0.00 60 1024.5
20260905170542 65 0 0.0 13.0 0.00 0.00 0.00 60 1024.4
20260905170109 65 0 0.9 13.0 0.00 0.00 0.00 60 1024.4
20260905165544 65 205 2.6 16.5 0.00 0.06 0.00 60 1024.4
20260905165045 66 239 0.9 16.5 0.00 0.06 0.00 60 1024.3
20260905164605 66 0 6.1 16.5 0.00 0.06 0.00 59 1024.3
20260905164044 66 257 0.9 14.8 0.00 0.06 0.00 61 1024.2
20260905163542 66 0 1.7 17.4 0.00 0.06 0.00 61 1024.2
20260905163105 66 0 3.5 17.4 0.00 0.06 0.00 60 1024.1
20260905162545 66 0 1.7 16.5 0.00 0.06 0.00 60 1024.1
20260905162044 66 0 1.7 16.5 0.00 0.06 0.00 60 1024.0
20260905161602 66 247 0.0 12.2 0.00 0.06 0.00 61 1023.9
20260905161042 66 0 0.9 13.9 0.00 0.06 0.00 60 1023.8
20260905160542 66 232 1.7 14.8 0.00 0.06 0.00 60 1023.9
20260905160059 67 261 0.0 14.8 0.00 0.06 0.00 60 1023.8
20260905155545 66 0 0.0 14.8 0.00 0.12 0.00 61 1023.7
20260905155044 66 0 0.9 11.3 0.00 0.12 0.00 61 1023.7
20260905154606 66 0 0.9 11.3 0.00 0.12 0.00 60 1023.8
20260905154046 67 0 0.9 10.4 0.00 0.12 0.00 60 1023.6
20260905153544 67 0 0.9 10.4 0.00 0.12 0.00 60 1023.5
20260905153102 67 268 0.0 11.3 0.00 0.12 0.00 62 1023.5
20260905152545 66 0 0.9 11.3 0.00 0.12 0.00 62 1023.4
20260905152048 66 0 0.0 9.6 0.00 0.12 0.00 61 1023.3
20260905151607 67 252 0.0 13.9 0.00 0.12 0.00 61 1023.2
20260905151046 67 218 0.9 15.6 0.00 0.12 0.00 61 1023.1
20260905150545 68 233 3.5 15.6 0.00 0.12 0.00 59 1023.0
20260905150109 67 0 2.6 14.8 0.00 0.12 0.00 59 1023.0
20260905145544 67 231 4.3 14.8 0.00 0.12 0.00 60 1023.0
20260905145046 67 0 0.0 18.2 0.00 0.12 0.00 63 1023.1
20260905144603 67 229 2.6 18.2 0.00 0.12 0.00 63 1023.1
20260905144045 67 0 0.9 18.2 0.00 0.12 0.00 61 1022.9
20260905143547 67 0 0.0 17.4 0.00 0.12 0.00 61 1022.9
20260905143104 68 252 2.6 17.4 0.00 0.12 0.00 59 1022.9
20260905142549 68 269 4.3 14.8 0.00 0.12 0.00 60 1022.8
20260905142045 67 0 0.9 13.9 0.00 0.12 0.00 63 1022.9
20260905141603 67 0 2.6 14.8 0.00 0.12 0.00 62 1022.8
20260905141045 67 263 1.7 17.4 0.00 0.12 0.00 61 1022.8
20260905140546 67 240 0.0 17.4 0.00 0.12 0.00 61 1022.8
20260905140128 67 321 2.6 16.5 0.00 0.12 0.00 61 1022.8
20260905135545 67 0 0.9 11.3 0.00 0.12 0.00 61 1022.7
20260905135045 67 0 0.9 15.6 0.00 0.12 0.00 61 1022.7
20260905134627 68 0 2.6 15.6 0.00 0.12 0.00 62 1022.7
20260905134047 68 0 1.7 13.9 0.00 0.12 0.00 61 1022.5
20260905133544 67 0 1.7 15.6 0.00 0.12 0.00 63 1022.6
20260905133102 67 253 1.7 15.6 0.00 0.12 0.00 63 1022.6
20260905132544 67 276 1.7 11.3 0.00 0.12 0.00 64 1022.6
20260905132044 67 0 1.7 11.3 0.00 0.12 0.00 64 1022.5
20260905131615 67 0 0.9 13.0 0.00 0.12 0.00 65 1022.4
20260905131046 66 0 2.6 17.4 0.00 0.12 0.00 66 1022.5
20260905130546 66 242 2.6 22.6 0.00 0.12 0.00 64 1022.5
20260905130105 66 0 3.5 22.6 0.00 0.12 0.00 63 1022.4
20260905125546 66 238 4.3 15.6 0.00 0.12 0.00 63 1022.3
20260905125047 66 257 3.5 15.6 0.00 0.12 0.00 63 1022.2
20260905124606 67 0 1.7 13.9 0.00 0.12 0.00 64 1022.2
20260905124048 66 250 2.6 18.2 0.00 0.12 0.00 65 1022.3
20260905123545 66 269 2.6 18.2 0.00 0.12 0.00 67 1022.2
20260905123107 66 223 1.7 14.8 0.00 0.12 0.00 66 1022.2
20260905122544 66 230 2.6 14.8 0.00 0.12 0.00 66 1022.2
20260905122043 66 246 1.7 14.8 0.00 0.12 0.00 66 1022.1
20260905121604 66 246 5.2 20.9 0.00 0.12 0.00 66 1022.1
20260905121042 66 245 4.3 20.9 0.00 0.12 0.00 66 1022.2
20260905120545 65 280 6.1 17.4 0.00 0.12 0.00 67 1022.0
20260905120108 65 0 2.6 13.9 0.00 0.12 0.00 67 1022.1
20260905115545 66 244 2.6 13.0 0.00 0.12 0.00 65 1022.0
20260905115049 66 252 0.0 17.4 0.00 0.12 0.00 67 1021.9
20260905114558 66 0 3.5 18.2 0.00 0.12 0.00 67 1021.9
20260905114042 65 279 6.1 18.2 0.00 0.12 0.00 68 1022.0
20260905113546 65 223 5.2 15.6 0.00 0.12 0.00 67 1022.0
20260905113109 65 0 0.9 13.9 0.00 0.12 0.00 67 1021.9
20260905112542 66 246 1.7 20.9 0.00 0.12 0.00 67 1021.8
20260905112045 66 0 5.2 20.9 0.00 0.12 0.00 66 1021.6
20260905111607 66 231 6.1 20.0 0.00 0.12 0.00 69 1021.7
20260905111045 65 0 3.5 17.4 0.00 0.12 0.00 70 1021.6
20260905110545 67 238 2.6 17.4 0.00 0.12 0.00 67 1021.6
20260905110104 68 240 6.1 17.4 0.00 0.12 0.00 68 1021.6
20260905105542 66 231 0.9 16.5 0.00 0.12 0.00 70 1021.5
20260905105045 65 246 3.5 16.5 0.00 0.12 0.00 70 1021.6
20260905104617 66 207 3.5 16.5 0.00 0.12 0.00 69 1021.7
20260905104045 65 234 4.3 18.2 0.00 0.12 0.00 71 1021.5
20260905103542 66 221 4.3 19.1 0.00 0.12 0.00 70 1021.4
20260905103106 65 0 7.8 19.1 0.00 0.12 0.00 70 1021.5
20260905102542 65 230 0.9 14.8 0.00 0.12 0.00 71 1021.4
20260905102045 65 219 2.6 13.0 0.00 0.12 0.00 72 1021.5
20260905101610 65 232 1.7 14.8 0.00 0.12 0.00 73 1021.3
20260905101042 65 212 4.3 16.5 0.00 0.12 0.00 71 1021.4
20260905100545 66 0 7.8 17.4 0.00 0.12 0.00 71 1021.3
20260905100114 66 217 5.2 17.4 0.00 0.12 0.00 71 1021.3
20260905095545 66 0 4.3 17.4 0.00 0.12 0.00 73 1021.2
20260905095045 66 0 1.7 14.8 0.00 0.12 0.00 72 1021.2
20260905094555 66 219 3.5 16.5 0.00 0.12 0.00 73 1021.2
20260905094044 65 0 2.6 18.2 0.00 0.12 0.00 74 1021.1
20260905093545 65 226 5.2 18.2 0.00 0.12 0.00 73 1021.2
20260905093106 65 230 6.1 14.8 0.00 0.12 0.00 75 1021.1
20260905092550 64 244 6.1 13.9 0.00 0.12 0.00 76 1021.0
20260905092044 64 241 1.7 16.5 0.00 0.12 0.00 77 1021.1
20260905091603 64 225 2.6 16.5 0.00 0.12 0.00 75 1021.0
20260905091042 65 0 0.9 16.5 0.00 0.12 0.00 77 1021.0
20260905090545 64 205 2.6 12.2 0.00 0.12 0.00 77 1021.0
20260905090135 64 0 1.7 14.8 0.00 0.12 0.00 78 1020.9
20260905085546 64 0 1.7 14.8 0.00 0.12 0.00 80 1020.9
20260905085049 63 233 1.7 14.8 0.00 0.12 0.00 80 1021.0
20260905084602 63 0 2.6 13.0 0.00 0.12 0.00 79 1020.8
20260905084042 63 212 2.6 13.9 0.00 0.12 0.00 80 1020.8
20260905083544 63 225 2.6 13.9 0.00 0.12 0.00 81 1020.7
20260905083103 63 232 3.5 13.9 0.00 0.12 0.00 81 1020.6
20260905082544 63 0 2.6 11.3 0.00 0.12 0.00 80 1020.5
20260905082045 63 0 2.6 14.8 0.00 0.12 0.00 80 1020.5
20260905081603 64 0 0.0 14.8 0.00 0.12 0.00 80 1020.5
20260905081045 64 215 2.6 10.4 0.00 0.12 0.00 80 1020.5
20260905080545 63 0 2.6 10.4 0.00 0.12 0.00 82 1020.5
20260905075546 62 254 2.6 10.4 0.00 0.12 0.00 81 1020.4
20260905075043 63 0 1.7 10.4 0.00 0.12 0.00 80 1020.3
20260905074606 63 231 2.6 9.6 0.00 0.12 0.00 81 1020.3
20260905074046 63 242 0.9 8.7 0.00 0.12 0.00 82 1020.3
20260905073542 63 199 1.7 12.2 0.00 0.12 0.00 82 1020.1
20260905073102 62 234 0.0 12.2 0.00 0.12 0.00 84 1020.1
20260905072547 62 224 0.9 9.6 0.00 0.12 0.00 83 1020.0
20260905072042 62 236 0.0 8.7 0.00 0.12 0.00 85 1020.0
20260905071616 61 260 2.6 12.2 0.00 0.12 0.00 85 1020.0
20260905071042 61 221 0.9 12.2 0.00 0.12 0.00 85 1020.0
20260905070546 60 210 0.9 9.6 0.00 0.12 0.00 87 1019.9
20260905070108 60 247 1.7 9.6 0.00 0.12 0.00 87 1019.8
20260905065546 60 237 1.7 7.0 0.00 0.12 0.00 88 1019.8
20260905065042 60 0 0.0 7.0 0.00 0.12 0.00 88 1019.7
20260905064603 59 209 1.7 8.7 0.00 0.12 0.00 90 1019.7
20260905064046 59 0 0.9 12.2 0.00 0.12 0.00 89 1019.6
20260905063545 59 0 2.6 12.2 0.00 0.12 0.00 90 1019.6
20260905063058 58 227 0.0 10.4 0.00 0.12 0.00 91 1019.4
20260905062542 58 211 0.9 11.3 0.00 0.12 0.00 91 1019.4
20260905062045 58 221 4.3 11.3 0.00 0.12 0.00 92 1019.4
20260905061557 58 0 0.9 6.1 0.00 0.12 0.00 92 1019.3
20260905061042 58 225 0.0 7.0 0.00 0.12 0.00 92 1019.3
20260905060541 58 0 0.9 7.8 0.00 0.12 0.00 92 1019.3
20260905060105 57 227 0.0 7.8 0.00 0.12 0.00 93 1019.3
20260905055544 57 0 0.0 6.1 0.00 0.12 0.00 94 1019.3
20260905055044 57 0 0.0 6.1 0.00 0.12 0.00 94 1019.3
20260905054608 57 0 0.0 6.1 0.00 0.12 0.00 94 1019.2
20260905054045 57 0 0.0 6.1 0.00 0.12 0.00 94 1019.1
20260905053546 57 0 0.0 4.3 0.00 0.12 0.00 94 1019.1
20260905053101 57 0 0.0 4.3 0.00 0.12 0.00 94 1019.0
20260905052544 57 0 0.0 7.0 0.00 0.12 0.00 94 1019.0
20260905052045 57 0 0.0 7.0 0.00 0.12 0.00 94 1019.0
20260905051604 57 0 0.0 7.0 0.00 0.12 0.00 94 1018.9
20260905051042 57 0 0.0 0.0 0.00 0.12 0.00 95 1018.9
20260905050542 57 0 0.0 0.0 0.00 0.11 0.00 95 1018.8
20260905045542 57 0 0.0 0.0 0.00 0.11 0.00 95 1018.7
20260905045044 56 0 0.0 0.9 0.00 0.11 0.00 95 1018.7
20260905044604 56 0 0.0 0.9 0.00 0.11 0.00 95 1018.6
20260905044042 56 0 0.0 0.0 0.00 0.11 0.00 95 1018.6
20260905043545 56 0 0.0 5.2 0.00 0.11 0.00 95 1018.4
20260905043059 56 0 0.0 5.2 0.00 0.11 0.00 96 1018.3
20260905042545 56 0 0.0 4.3 0.00 0.11 0.00 96 1018.3
20260905042041 56 0 0.0 4.3 0.00 0.11 0.00 96 1018.2
20260905041607 56 0 0.0 3.5 0.00 0.11 0.00 96 1018.1
20260905041044 55 0 0.0 3.5 0.00 0.11 0.00 96 1018.0
20260905040541 55 0 0.0 3.5 0.00 0.11 0.00 96 1018.0
20260905040106 55 0 0.0 2.6 0.00 0.11 0.00 96 1018.0
20260905035547 55 0 0.0 2.6 0.00 0.11 0.00 96 1018.1
20260905035046 55 0 0.0 0.0 0.00 0.11 0.00 96 1018.0
20260905034616 55 0 0.0 4.3 0.00 0.11 0.00 96 1018.1
20260905034046 55 0 0.0 4.3 0.00 0.11 0.00 96 1018.1
20260905033545 54 0 0.0 4.3 0.00 0.11 0.00 96 1018.0
20260905033116 54 0 0.0 0.0 0.00 0.11 0.00 96 1018.0
20260905032547 54 0 0.0 0.0 0.00 0.11 0.00 96 1018.0
20260905032046 54 0 0.0 0.0 0.00 0.11 0.00 96 1018.0
20260905031614 54 0 0.0 0.0 0.00 0.11 0.00 96 1018.0
20260905031048 54 0 0.0 0.0 0.00 0.11 0.00 96 1018.1
20260905030546 54 0 0.0 0.0 0.00 0.11 0.00 96 1018.0
20260905030106 54 0 0.0 0.0 0.00 0.11 0.00 96 1018.0
20260905025545 54 0 0.0 0.0 0.00 0.11 0.00 96 1018.0
20260905025049 54 0 0.0 0.0 0.00 0.11 0.00 96 1018.0
20260905024605 54 0 0.0 0.0 0.00 0.11 0.00 96 1018.0
20260905024045 54 0 0.0 0.0 0.00 0.11 0.00 96 1018.0
20260905023548 54 0 0.0 0.0 0.00 0.11 0.00 96 1018.0
20260905023107 55 0 0.0 0.0 0.00 0.11 0.00 96 1017.9
20260905022550 55 0 0.0 0.0 0.00 0.11 0.00 96 1017.8
20260905022046 55 0 0.0 0.0 0.00 0.11 0.00 96 1017.9
20260905021604 55 0 0.0 0.0 0.00 0.11 0.00 96 1017.8
20260905021046 55 0 0.0 0.0 0.00 0.11 0.00 96 1017.8
20260905020546 54 0 0.0 0.0 0.00 0.11 0.00 96 1017.7
20260905020105 54 0 0.0 0.0 0.00 0.11 0.00 96 1017.8
20260905015546 54 0 0.0 0.0 0.00 0.11 0.00 96 1017.6
20260905015046 54 0 0.0 0.0 0.00 0.11 0.00 96 1017.6
20260905014614 54 0 0.0 0.0 0.00 0.11 0.00 96 1017.6
20260905014046 54 0 0.0 0.0 0.00 0.11 0.00 96 1017.5
20260905013547 54 0 0.0 0.0 0.00 0.11 0.00 96 1017.5
20260905013120 55 0 0.0 0.0 0.00 0.11 0.00 96 1017.6
20260905012546 55 0 0.0 0.0 0.00 0.11 0.00 96 1017.6
20260905012045 55 0 0.0 0.0 0.00 0.11 0.00 96 1017.6
20260905011601 55 0 0.0 0.0 0.00 0.11 0.00 96 1017.6
20260905011046 55 0 0.0 0.0 0.00 0.11 0.00 96 1017.6
20260905010547 55 0 0.0 0.0 0.00 0.11 0.00 96 1017.6
20260905010100 55 0 0.0 0.0 0.00 0.11 0.00 96 1017.6
20260905005546 55 0 0.0 0.0 0.00 0.11 0.00 96 1017.5
20260905005048 55 0 0.0 0.0 0.00 0.11 0.00 96 1017.6
20260905004711 55 0 0.0 0.0 0.00 0.11 0.00 96 1017.6
20260905004046 55 0 0.0 0.0 0.00 0.11 0.00 96 1017.6
20260905003546 56 0 0.0 0.0 0.00 0.11 0.00 96 1017.7
20260905003101 56 0 0.0 0.0 0.00 0.11 0.00 96 1017.7
20260905002545 56 0 0.0 0.0 0.00 0.11 0.00 96 1017.6
20260905002050 56 0 0.0 0.0 0.00 0.11 0.00 96 1017.6
20260905001609 56 0 0.0 0.0 0.00 0.11 0.00 96 1017.8
20260905001046 56 0 0.0 0.0 0.00 0.11 0.00 96 1017.6
20260905000546 56 0 0.0 0.0 0.00 0.11 0.00 96 1017.6
20260905000107 56 0 0.0 0.0 0.00 0.11 0.00 96 1017.6
20260904235546 56 0 0.0 0.0 0.00 0.11 0.00 96 1017.7
20260904235047 56 0 0.0 0.0 0.00 0.11 0.00 96 1017.5
20260904234604 56 0 0.0 0.0 0.00 0.11 0.00 96 1017.5
20260904234046 57 0 0.0 0.0 0.00 0.11 0.00 96 1017.6
20260904233546 57 0 0.0 0.0 0.00 0.11 0.00 95 1017.5
20260904233105 57 0 0.0 0.0 0.00 0.11 0.00 96 1017.4
20260904232546 57 0 0.0 0.0 0.00 0.11 0.00 95 1017.4
20260904232048 57 0 0.0 0.0 0.00 0.11 0.00 95 1017.4
20260904231606 57 0 0.0 0.0 0.00 0.11 0.00 95 1017.3
20260904231046 58 0 0.0 0.0 0.00 0.11 0.00 95 1017.3
20260904230546 58 0 0.0 0.0 0.00 0.11 0.00 95 1017.3
20260904230110 58 0 0.0 0.0 0.00 0.11 0.00 95 1017.3
20260904225547 58 0 0.0 0.0 0.00 0.11 0.00 95 1017.2
20260904225050 58 0 0.0 0.0 0.00 0.11 0.00 95 1017.2
20260904224605 59 0 0.0 0.0 0.00 0.11 0.00 95 1017.2
20260904224046 59 0 0.0 0.0 0.00 0.11 0.00 95 1017.2
20260904223545 59 0 0.0 0.0 0.00 0.11 0.00 95 1017.1
20260904223109 59 0 0.0 0.0 0.00 0.11 0.00 95 1017.1
20260904222546 59 0 0.0 0.0 0.00 0.11 0.00 95 1017.0
20260904222045 59 0 0.0 0.0 0.00 0.11 0.00 95 1017.0
20260904221606 59 0 0.0 0.9 0.00 0.11 0.00 95 1016.9
20260904221046 59 0 0.0 0.9 0.00 0.11 0.00 95 1016.8
20260904220547 59 0 0.0 0.9 0.00 0.11 0.00 95 1016.8
20260904220107 60 0 0.0 0.9 0.00 0.11 0.00 95 1016.8
20260904215546 60 0 0.0 0.9 0.00 0.11 0.11 95 1016.7
20260904215046 60 0 0.0 0.0 0.00 0.11 0.11 95 1016.6
20260904214613 60 0 0.0 0.0 0.00 0.11 0.11 95 1016.7
20260904214046 60 0 0.0 0.0 0.00 0.11 0.11 95 1016.5
20260904213546 60 0 0.0 0.0 0.00 0.11 0.11 95 1016.4
20260904213108 60 0 0.0 3.5 0.00 0.11 0.11 95 1016.5
20260904212546 60 0 0.0 3.5 0.00 0.11 0.11 95 1016.3
20260904212042 60 0 0.0 0.0 0.00 0.11 0.11 95 1016.4
20260904211602 60 0 0.0 5.2 0.00 0.11 0.11 95 1016.3
20260904211046 60 0 0.0 5.2 0.00 0.11 0.11 95 1016.2
20260904210550 60 0 0.0 5.2 0.00 0.11 0.11 95 1016.1
20260904210108 60 0 0.0 7.8 0.00 0.11 0.11 95 1016.1
20260904205549 60 0 0.9 7.8 0.00 0.11 0.11 95 1016.0
20260904205045 60 0 0.9 7.8 0.00 0.11 0.11 95 1016.1
20260904204609 60 0 0.0 7.8 0.00 0.11 0.11 95 1016.1
20260904204048 60 0 0.0 7.8 0.00 0.11 0.11 95 1016.0
20260904203546 60 0 0.0 7.8 0.00 0.11 0.11 95 1015.9
20260904203104 60 0 0.0 9.6 0.00 0.11 0.11 95 1015.8
20260904202545 61 0 0.9 9.6 0.00 0.11 0.11 95 1015.8
20260904202046 61 241 0.0 6.1 0.00 0.11 0.11 95 1015.9
20260904201601 61 0 0.0 7.0 0.00 0.11 0.11 95 1016.0
20260904201046 61 0 0.0 7.8 0.00 0.11 0.11 95 1016.0
20260904200547 60 0 0.0 7.8 0.00 0.11 0.11 95 1015.8
20260904200120 61 0 0.0 8.7 0.00 0.11 0.11 95 1015.9
20260904195549 61 0 0.0 8.7 0.00 0.11 0.11 95 1015.8
20260904195045 61 0 1.7 7.8 0.00 0.11 0.11 95 1015.9
20260904194609 61 0 0.0 6.1 0.00 0.11 0.11 95 1015.7
20260904194046 61 0 0.0 6.1 0.00 0.11 0.11 95 1015.6
20260904193545 61 0 0.0 6.1 0.00 0.11 0.11 96 1015.6
20260904193106 61 0 0.0 4.3 0.00 0.11 0.11 95 1015.7
20260904192546 61 0 0.0 3.5 0.00 0.11 0.11 96 1015.5
20260904192048 61 0 0.0 6.1 0.00 0.11 0.11 95 1015.4
20260904191605 61 0 0.0 6.1 0.00 0.11 0.11 95 1015.1
20260904191046 61 0 0.9 8.7 0.00 0.11 0.11 95 1015.1